Weather History for Naples, FL

Change the Weather History Date:

Monday, January 16, 2012

  Actual Average Record
Temperature  
Mean Temperature 62 °F 64 °F  
Max Temperature 75 °F 75 °F 86 °F (1947)
Min Temperature 48 °F 54 °F 33 °F (1978)
Degree Days  
Heating Degree Days 3 4  
Month to date heating degree days 72 58  
Since 1 July heating degree days 97 136  
Cooling Degree Days 0 3  
Month to date cooling degree days 17 48  
Year to date cooling degree days 17 48  
Growing Degree Days 10 (Base 50)    
Moisture  
Dew Point 47 °F    
Average Humidity 61    
Maximum Humidity 77    
Minimum Humidity 44    
Precipitation  
Precipitation 0.00 in 0.05 in 6.10 in (1991)
Month to date precipitation 0.02 0.86  
Year to date precipitation 0.02 0.86  
Snow  
Snow 0.00 in - - ()
Month to date snowfall 0.0  
Since 1 July snowfall 0.0  
Snow Depth 0.00 in    
Sea Level Pressure  
Sea Level Pressure 30.36 in    
Wind  
Wind Speed 9 mph (ENE)    
Max Wind Speed 22 mph    
Max Gust Speed 25 mph    
Visibility 10 miles    
Events      
T = Trace of Precipitation, MM = Missing Value Source: NWS Daily Summary

Daily Weather History Graph

Daily Weather History Graph

Search for Another Location

Airport:

Trip Planner

Search our weather history database for the weather conditions in past years. The results will help you decide how hot, cold, wet, or windy it might be!

Date:

Astronomy

Jan. 16, 2012 Rise Set
Actual Time 7:16 AM EST 5:57 PM EST
Civil Twilight 6:51 AM EST 6:22 PM EST
Nautical Twilight 6:22 AM EST 6:50 PM EST
Astronomical Twilight 5:55 AM EST 7:18 PM EST
Moon 12:34 AM EST (1/16) 12:02 PM EST (1/16)
Length of Visible Light 11h 31m
Length of Day
10h 41m
Waning Gibbous, 46% of the Moon is Illuminated
Jan 16
Waning Gibbous
Jan 23
New
Jan 30
First Quarter
Feb 7
Full
Feb 14
Last Quarter

Hourly Weather History & Observations

Time (EST) Temp. Dew Point Humidity Pressure Visibility Wind Dir Wind Speed Gust Speed Precip Events Conditions
12:53 AM 50.0 °F 39.0 °F 66% 30.41 in 10.0 mi NE 3.5 mph - N/A   Clear
1:53 AM 48.9 °F 39.9 °F 71% 30.40 in 10.0 mi NE 5.8 mph - N/A   Clear
2:53 AM 50.0 °F 43.0 °F 77% 30.38 in 10.0 mi NE 8.1 mph - N/A   Clear
3:53 AM 50.0 °F 43.0 °F 77% 30.37 in 10.0 mi NNE 4.6 mph - N/A   Clear
4:53 AM 51.1 °F 42.1 °F 71% 30.35 in 10.0 mi NNE 8.1 mph - N/A   Clear
5:53 AM 50.0 °F 42.1 °F 74% 30.36 in 10.0 mi NNE 6.9 mph - N/A   Clear
6:53 AM 51.1 °F 43.0 °F 74% 30.38 in 10.0 mi NNE 6.9 mph - N/A   Clear
7:53 AM 52.0 °F 44.1 °F 74% 30.40 in 10.0 mi NNE 9.2 mph - N/A   Clear
8:53 AM 57.9 °F 46.0 °F 65% 30.41 in 10.0 mi NE 9.2 mph - N/A   Clear
9:53 AM 64.9 °F 48.9 °F 56% 30.43 in 10.0 mi NE 12.7 mph - N/A   Clear
10:53 AM 69.1 °F 48.9 °F 49% 30.42 in 10.0 mi ENE 13.8 mph 21.9 mph N/A   Clear
11:53 AM 72.0 °F 50.0 °F 46% 30.38 in 10.0 mi East 15.0 mph - N/A   Clear
12:53 PM 73.0 °F 50.0 °F 44% 30.35 in 10.0 mi East 16.1 mph - N/A   Scattered Clouds
1:53 PM 73.9 °F 50.0 °F 43% 30.32 in 10.0 mi East 10.4 mph - N/A   Partly Cloudy
2:53 PM 73.9 °F 50.0 °F 43% 30.29 in 10.0 mi East 18.4 mph 21.9 mph N/A   Scattered Clouds
3:53 PM 72.0 °F 50.0 °F 46% 30.30 in 10.0 mi East 12.7 mph - N/A   Partly Cloudy
4:53 PM 72.0 °F 50.0 °F 46% 30.31 in 10.0 mi East 13.8 mph 21.9 mph N/A   Clear
5:53 PM 68.0 °F 51.1 °F 55% 30.32 in 10.0 mi East 8.1 mph - N/A   Scattered Clouds
6:53 PM 66.2 °F 48.2 °F 52% 30.33 in 10.0 mi East 8.1 mph - N/A   Partly Cloudy
7:53 PM 62.1 °F 48.9 °F 62% 30.34 in 10.0 mi ENE 3.5 mph - N/A   Clear
8:53 PM 60.8 °F 50.0 °F 68% 30.35 in 10.0 mi NE 4.6 mph - N/A   Partly Cloudy
9:53 PM 60.1 °F 50.0 °F 69% 30.35 in 10.0 mi NE 3.5 mph - N/A   Clear
10:53 PM 57.0 °F 50.0 °F 77% 30.33 in 10.0 mi ENE 5.8 mph - N/A   Clear
11:53 PM 57.0 °F 50.0 °F 77% 30.32 in 10.0 mi ENE 5.8 mph - N/A   Clear